Weather History for Chicopee, MA

Change the Weather History Date:

Friday, November 29, 2013

  Actual Average Record
Temperature  
Mean Temperature 26 °F -  
Max Temperature 34 °F 42 °F 66 °F (2011)
Min Temperature 14 °F 26 °F 11 °F (2014)
Degree Days  
Heating Degree Days 40    
Moisture  
Dew Point 13 °F    
Average Humidity 64    
Maximum Humidity 96    
Minimum Humidity 36    
Precipitation  
Precipitation 0.00 in - - ()
Sea Level Pressure  
Sea Level Pressure 30.60 in    
Wind  
Wind Speed 3 mph (NW)    
Max Wind Speed 12 mph    
Max Gust Speed -    
Visibility 10 miles    
Events      
Averages and records for this station are not official NWS values.
T = Trace of Precipitation, MM = Missing Value Source: NWS Daily Summary

Daily Weather History Graph

Daily Weather History Graph

Search for Another Location

Airport:

Trip Planner

Search our weather history database for the weather conditions in past years. The results will help you decide how hot, cold, wet, or windy it might be!

Date:

Astronomy

Nov. 29, 2013 Rise Set
Actual Time 6:57 AM EST 4:19 PM EST
Civil Twilight 6:26 AM EST 4:50 PM EST
Nautical Twilight 5:51 AM EST 5:25 PM EST
Astronomical Twilight 5:17 AM EST 5:59 PM EST
Moon 2:56 AM EST (11/29) 2:05 PM EST (11/29)
Length of Visible Light 10h 24m
Length of Day
9h 22m
Waning Crescent, 14% of the Moon is Illuminated
Nov 29
Waning Crescent
Dec 2
New
Dec 9
First Quarter
Dec 17
Full
Dec 25
Last Quarter

Hourly Weather History & Observations

Time (EST) Temp. Windchill Dew Point Humidity Pressure Visibility Wind Dir Wind Speed Gust Speed Precip Events Conditions
12:58 AM 23.5 °F - 14.7 °F 69% 30.48 in 10.0 mi South 1.2 mph - N/A   Overcast
1:58 AM 23.7 °F - 16.0 °F 72% 30.49 in 10.0 mi SSE 2.3 mph - N/A   Overcast
2:58 AM 23.5 °F - 17.4 °F 77% 30.49 in 10.0 mi SSE 1.2 mph - N/A   Overcast
3:58 AM 23.7 °F - 16.2 °F 73% 30.49 in 10.0 mi SSE 2.3 mph - N/A   Overcast
4:58 AM 23.7 °F - 16.7 °F 75% 30.50 in 10.0 mi Calm Calm - N/A   Overcast
5:58 AM 22.3 °F - 16.3 °F 78% 30.52 in 10.0 mi Calm Calm - N/A   Overcast
6:58 AM 17.8 °F - 16.5 °F 95% 30.54 in 10.0 mi NE 1.2 mph - N/A   Clear
7:58 AM 19.9 °F - 18.9 °F 96% 30.57 in 10.0 mi Calm Calm - N/A   Clear
8:58 AM 25.5 °F 21.3 °F 17.4 °F 71% 30.59 in 10.0 mi NNW 3.5 mph - N/A   Clear
9:58 AM 28.6 °F 19.9 °F 13.1 °F 52% 30.60 in 10.0 mi NW 9.2 mph - N/A   Clear
10:58 AM 30.7 °F 24.9 °F 13.3 °F 48% 30.59 in 10.0 mi West 5.8 mph - N/A   Clear
11:58 AM 33.3 °F 27.9 °F 13.1 °F 43% 30.58 in 10.0 mi NNW 5.8 mph - N/A   Scattered Clouds
12:58 PM 33.4 °F 29.1 °F 12.7 °F 42% 30.58 in 10.0 mi NNW 4.6 mph - N/A   Partly Cloudy
1:58 PM 33.8 °F 27.0 °F 11.5 °F 40% 30.58 in 10.0 mi NW 8.1 mph - N/A   Partly Cloudy
2:58 PM 34.3 °F 27.7 °F 9.5 °F 36% 30.59 in 10.0 mi WNW 8.1 mph - N/A   Partly Cloudy
3:58 PM 32.0 °F 25.6 °F 9.7 °F 39% 30.61 in 10.0 mi NW 6.9 mph - N/A   Clear
4:58 PM 28.0 °F 18.1 °F 9.3 °F 45% 30.65 in 10.0 mi NW 11.5 mph - N/A   Clear
5:58 PM 27.3 °F 17.7 °F 9.5 °F 47% 30.67 in 10.0 mi WNW 10.4 mph - N/A   Clear
6:58 PM 25.5 °F 16.9 °F 10.2 °F 52% 30.69 in 10.0 mi NW 8.1 mph - N/A   Clear
7:58 PM 22.5 °F 15.1 °F 9.7 °F 58% 30.71 in 10.0 mi NW 5.8 mph - N/A   Clear
8:58 PM 18.9 °F 13.7 °F 12.9 °F 78% 30.74 in 10.0 mi North 3.5 mph - N/A   Clear
9:58 PM 17.4 °F 9.1 °F 14.5 °F 88% 30.73 in 10.0 mi North 5.8 mph - N/A   Clear
10:58 PM 18.0 °F - 12.0 °F 78% 30.75 in 10.0 mi ESE 2.3 mph - N/A   Clear
11:58 PM 14.0 °F 8.2 °F 11.5 °F 90% 30.75 in 10.0 mi NE 3.5 mph - N/A   Clear